Weather History for Louisville, KY

Change the Weather History Date:

Friday, June 15, 2012

  Actual Average Record
Temperature  
Mean Temperature 77 °F 76 °F  
Max Temperature 91 °F 85 °F 98 °F (1952)
Min Temperature 62 °F 66 °F 47 °F (1917)
Degree Days  
Heating Degree Days 0 0  
Month to date heating degree days 7 1  
Since 1 June heating degree days 7 1  
Since 1 July heating degree days 3216 4093  
Cooling Degree Days 12 11  
Month to date cooling degree days 99 136  
Year to date cooling degree days 454 310  
Since 1 June cooling degree days 99 136  
Growing Degree Days 26 (Base 50)    
Moisture  
Dew Point 58 °F    
Average Humidity 55    
Maximum Humidity 78    
Minimum Humidity 32    
Precipitation  
Precipitation 0.00 in 0.12 in 2.24 in (1949)
Month to date precipitation 0.50 2.03  
Year to date precipitation 23.82 21.90  
Snow  
Snow 0.00 in 0.00 in - ()
Month to date snowfall 0.0 0.0  
Since 1 June snowfall 0.0 0.0  
Since 1 July snowfall 7.0 12.5  
Snow Depth 0.00 in    
Sea Level Pressure  
Sea Level Pressure 30.07 in    
Wind  
Wind Speed 5 mph (South)    
Max Wind Speed 15 mph    
Max Gust Speed 20 mph    
Visibility 10 miles    
Events      
T = Trace of Precipitation, MM = Missing Value Source: NWS Daily Summary

Daily Weather History Graph

Daily Weather History Graph

Search for Another Location

Airport:

Trip Planner

Search our weather history database for the weather conditions in past years. The results will help you decide how hot, cold, wet, or windy it might be!

Date:

Astronomy

Jun. 15, 2012 Rise Set
Actual Time 6:19 AM EDT 9:07 PM EDT
Civil Twilight 5:47 AM EDT 9:39 PM EDT
Nautical Twilight 5:08 AM EDT 10:19 PM EDT
Astronomical Twilight 4:23 AM EDT 11:04 PM EDT
Moon 3:31 AM EDT (6/15) 5:48 PM EDT (6/15)
Length of Visible Light 15h 51m
Length of Day
14h 48m
Waning Crescent, 14% of the Moon is Illuminated
Jun 15
Waning Crescent
Jun 19
New
Jun 26
First Quarter
Jul 3
Full
Jul 10
Last Quarter

Hourly Weather History & Observations

Time (EDT) Temp. Heat Index Dew Point Humidity Pressure Visibility Wind Dir Wind Speed Gust Speed Precip Events Conditions
12:56 AM 70.0 °F - 52.0 °F 53% 30.04 in 10.0 mi East 4.6 mph - N/A   Clear
1:56 AM 68.0 °F - 51.1 °F 55% 30.04 in 10.0 mi Calm Calm - N/A   Clear
2:56 AM 68.0 °F - 51.1 °F 55% 30.04 in 10.0 mi North 3.5 mph - N/A   Clear
3:56 AM 66.0 °F - 53.1 °F 63% 30.04 in 10.0 mi Calm Calm - N/A   Clear
4:56 AM 64.0 °F - 54.0 °F 70% 30.05 in 10.0 mi NNW 4.6 mph - N/A   Clear
5:56 AM 63.0 °F - 55.0 °F 75% 30.07 in 10.0 mi North 3.5 mph - N/A   Clear
6:56 AM 63.0 °F - 54.0 °F 72% 30.09 in 10.0 mi Calm Calm - N/A   Clear
7:56 AM 66.9 °F - 55.9 °F 68% 30.11 in 10.0 mi Calm Calm - N/A   Partly Cloudy
8:56 AM 70.0 °F - 54.0 °F 57% 30.12 in 10.0 mi SSE 5.8 mph - N/A   Partly Cloudy
9:56 AM 75.0 °F - 57.0 °F 53% 30.12 in 10.0 mi Calm Calm - N/A   Partly Cloudy
10:56 AM 79.0 °F - 63.0 °F 58% 30.11 in 10.0 mi South 5.8 mph - N/A   Partly Cloudy
11:56 AM 82.0 °F 83.8 °F 64.9 °F 56% 30.10 in 10.0 mi WSW 6.9 mph - N/A   Partly Cloudy
12:56 PM 84.0 °F 84.9 °F 63.0 °F 49% 30.08 in 10.0 mi Variable 3.5 mph - N/A   Partly Cloudy
1:56 PM 87.1 °F 87.0 °F 61.0 °F 41% 30.07 in 10.0 mi Calm Calm - N/A   Scattered Clouds
2:56 PM 89.1 °F 88.0 °F 57.9 °F 35% 30.05 in 10.0 mi NW 5.8 mph - N/A   Scattered Clouds
3:56 PM 89.1 °F 88.0 °F 57.9 °F 35% 30.06 in 10.0 mi Variable 5.8 mph - N/A   Scattered Clouds
4:56 PM 90.0 °F 88.1 °F 55.9 °F 31% 30.06 in 10.0 mi SSW 6.9 mph - N/A   Scattered Clouds
5:56 PM 90.0 °F 87.9 °F 55.0 °F 30% 30.04 in 10.0 mi ESE 5.8 mph - N/A   Scattered Clouds
6:56 PM 89.1 °F 87.3 °F 55.9 °F 32% 30.04 in 10.0 mi SSE 6.9 mph - N/A   Mostly Cloudy
7:56 PM 87.1 °F 87.0 °F 61.0 °F 41% 30.05 in 10.0 mi SSE 11.5 mph - N/A   Mostly Cloudy
8:56 PM 84.0 °F 86.3 °F 66.0 °F 55% 30.06 in 10.0 mi SSE 9.2 mph - N/A   Overcast
9:56 PM 82.9 °F 85.0 °F 66.0 °F 56% 30.06 in 10.0 mi SSW 8.1 mph - N/A   Overcast
10:56 PM 80.1 °F 81.9 °F 64.9 °F 60% 30.07 in 10.0 mi SSW 6.9 mph - N/A   Mostly Cloudy
11:56 PM 79.0 °F - 64.9 °F 62% 30.08 in 10.0 mi SSE 4.6 mph - N/A   Scattered Clouds